Flippin, AR

2:58 PM CDT on August 17, 2017 (GMT -0500)
Marion County Regional

Weather History for KFLP - December, 2012

Change the Weather History Date:

Saturday, December 15, 2012

  Actual Average Record
Temperature  
Mean Temperature 58 °F -  
Max Temperature 68 °F 46 °F 71 °F (2006)
Min Temperature 46 °F 28 °F 12 °F (2004)
Degree Days  
Heating Degree Days 7    
Growing Degree Days 8 (Base 50)    
Moisture  
Dew Point 38 °F    
Average Humidity 54    
Maximum Humidity 82    
Minimum Humidity 30    
Precipitation  
Precipitation 0.01 in - - ()
Sea Level Pressure  
Sea Level Pressure 29.77 in    
Wind  
Wind Speed 7 mph (South)    
Max Wind Speed 18 mph    
Max Gust Speed 29 mph    
Visibility 10 miles    
Events      
Averages and records for this station are not official NWS values.
T = Trace of Precipitation, MM = Missing Value Source: NWS Daily Summary

Daily Weather History Graph

Daily Weather History Graph

Search for Another Location

Airport or City:

Trip Planner

Search our weather history database for the weather conditions in past years. The results will help you decide how hot, cold, wet, or windy it might be!

Date:

Astronomy

Dec. 15, 2012 Rise Set
Actual Time 7:14 AM CST 4:56 PM CST
Civil Twilight 6:46 AM CST 5:25 PM CST
Nautical Twilight 6:13 AM CST 5:57 PM CST
Astronomical Twilight 5:42 AM CST 6:29 PM CST
Moon 9:10 AM CST (12/15) 7:57 PM CST (12/15)
Length of Visible Light 10h 39m
Length of Day
9h 42m
Waxing Crescent, 8% of the Moon is Illuminated
Dec 15
Waxing Crescent
Dec 19
First Quarter
Dec 28
Full
Jan 4
Last Quarter
Jan 11
New

Hourly Weather History & Observations

Time (CST) Temp. Dew Point Humidity Pressure Visibility Wind Dir Wind Speed Gust Speed Precip Events Conditions
12:15 AM 48.2 °F 35.6 °F 62% 29.89 in 10.0 mi SSE 8.1 mph - N/A   Overcast
12:55 AM 48.2 °F 37.4 °F 66% 29.88 in 10.0 mi South 6.9 mph - 0.01 in   Overcast
1:15 AM 48.2 °F 37.4 °F 66% 29.87 in 10.0 mi South 5.8 mph - N/A   Overcast
1:35 AM 48.2 °F 37.4 °F 66% 29.86 in 10.0 mi SSE 5.8 mph - N/A   Overcast
1:56 AM 51.8 °F 37.4 °F 58% 29.86 in 10.0 mi South 6.9 mph - N/A   Overcast
2:15 AM 50.0 °F 37.4 °F 62% 29.85 in 10.0 mi SSE 6.9 mph - N/A   Overcast
2:35 AM 50.0 °F 39.2 °F 66% 29.84 in 10.0 mi South 6.9 mph 16.1 mph N/A   Overcast
2:56 AM 48.2 °F 39.2 °F 71% 29.85 in 9.0 mi South 5.8 mph - N/A   Overcast
3:35 AM 48.2 °F 41.0 °F 76% 29.81 in 10.0 mi SSE 10.4 mph 16.1 mph N/A   Overcast
4:35 AM 51.8 °F 42.8 °F 71% 29.81 in 10.0 mi South 6.9 mph - N/A   Overcast
4:55 AM 51.8 °F 42.8 °F 71% 29.80 in 10.0 mi South 5.8 mph - N/A   Overcast
5:35 AM 51.8 °F 44.6 °F 76% 29.79 in 10.0 mi South 8.1 mph - N/A   Overcast
5:55 AM 51.8 °F 44.6 °F 76% 29.78 in 10.0 mi South 8.1 mph - N/A   Overcast
6:15 AM 51.8 °F 44.6 °F 76% 29.79 in 10.0 mi South 8.1 mph - N/A   Overcast
6:35 AM 51.8 °F 44.6 °F 76% 29.78 in 10.0 mi SSE 8.1 mph - N/A   Overcast
6:55 AM 51.8 °F 44.6 °F 76% 29.77 in 10.0 mi SSE 8.1 mph 16.1 mph N/A   Overcast
7:15 AM 51.8 °F 44.6 °F 76% 29.77 in 10.0 mi South 6.9 mph - N/A   Overcast
7:36 AM 51.8 °F 46.4 °F 82% 29.78 in 10.0 mi South 4.6 mph - N/A   Overcast
7:55 AM 51.8 °F 46.4 °F 82% 29.78 in 10.0 mi South 6.9 mph - N/A   Overcast
8:55 AM 55.4 °F 46.4 °F 72% 29.77 in 10.0 mi South 4.6 mph - N/A   Clear
9:15 AM 55.4 °F 46.4 °F 72% 29.76 in 10.0 mi South 9.2 mph - N/A   Clear
9:55 AM 60.8 °F 44.6 °F 55% 29.76 in 10.0 mi South 12.7 mph 19.6 mph N/A   Clear
10:15 AM 60.8 °F 44.6 °F 55% 29.76 in 10.0 mi SSW 10.4 mph 18.4 mph N/A   Clear
11:15 AM 64.4 °F 39.2 °F 40% 29.74 in 10.0 mi SW 15.0 mph 26.5 mph N/A   Clear
11:35 AM 64.4 °F 39.2 °F 40% 29.73 in 10.0 mi SW 16.1 mph 24.2 mph N/A   Clear
12:15 PM 66.2 °F 39.2 °F 37% 29.72 in 10.0 mi SSW 10.4 mph 20.7 mph N/A   Clear
12:35 PM 66.2 °F 37.4 °F 35% 29.70 in 10.0 mi SSW 10.4 mph 19.6 mph N/A   Clear
1:15 PM 66.2 °F 37.4 °F 35% 29.70 in 10.0 mi SSW 13.8 mph 21.9 mph N/A   Clear
1:35 PM 68.0 °F 37.4 °F 33% 29.70 in 10.0 mi SSW 10.4 mph 21.9 mph N/A   Clear
1:55 PM 68.0 °F 35.6 °F 30% 29.69 in 10.0 mi SW 18.4 mph 28.8 mph N/A   Clear
2:16 PM 66.2 °F 35.6 °F 32% 29.69 in 10.0 mi SSW 10.4 mph 20.7 mph N/A   Clear
2:35 PM 66.2 °F 35.6 °F 32% 29.69 in 10.0 mi SSW 11.5 mph 18.4 mph N/A   Clear
3:15 PM 66.2 °F 35.6 °F 32% 29.69 in 10.0 mi SSW 9.2 mph 16.1 mph N/A   Clear
3:55 PM 64.4 °F 35.6 °F 34% 29.70 in 10.0 mi SSW 6.9 mph - N/A   Clear
5:15 PM 62.6 °F 33.8 °F 34% 29.70 in 10.0 mi SSW 6.9 mph - N/A   Clear
5:35 PM 62.6 °F 33.8 °F 34% 29.72 in 10.0 mi SSW 8.1 mph - N/A   Clear
5:55 PM 62.6 °F 33.8 °F 34% 29.73 in 10.0 mi SSW 8.1 mph - N/A   Clear
7:15 PM 57.2 °F 33.8 °F 41% 29.75 in 10.0 mi SW 4.6 mph - N/A   Clear
7:36 PM 57.2 °F 33.8 °F 41% 29.76 in 10.0 mi Calm Calm - N/A   Clear
7:55 PM 57.2 °F 33.8 °F 41% 29.76 in 10.0 mi Calm Calm - N/A   Clear
8:15 PM 57.2 °F 33.8 °F 41% 29.77 in 10.0 mi Calm Calm - N/A   Clear
8:36 PM 55.4 °F 33.8 °F 44% 29.76 in 10.0 mi Calm Calm - N/A   Clear
8:55 PM 55.4 °F 33.8 °F 44% 29.77 in 10.0 mi Calm Calm - N/A   Clear
9:15 PM 55.4 °F 33.8 °F 44% 29.76 in 10.0 mi Calm Calm - N/A   Clear
9:35 PM 53.6 °F 33.8 °F 47% 29.76 in 10.0 mi Calm Calm - N/A   Clear
9:55 PM 51.8 °F 33.8 °F 50% 29.76 in 10.0 mi Calm Calm - N/A   Clear
10:15 PM 48.2 °F 33.8 °F 58% 29.76 in 10.0 mi Calm Calm - N/A   Clear
10:35 PM 50.0 °F 33.8 °F 54% 29.76 in 10.0 mi Calm Calm - N/A   Clear
11:15 PM 48.2 °F 33.8 °F 58% 29.76 in 10.0 mi WSW 3.5 mph - N/A   Clear
11:35 PM 46.4 °F 33.8 °F 62% 29.76 in 10.0 mi Calm Calm - N/A   Clear